Location: Lamoine Observatory
(44.4551°N, 68.3470°W)
Time: 01:09:58
(UTC-05:00)

Daily predictions for brighter satellites

Satellite Brightness Start Highest point End
(mag) Time Altitude Azimuth Time Altitude Azimuth Time Altitude Azimuth
Cosmos 2369 Rocket 4.5 02:30:57 19° E 02:30:57 19° E 02:34:06 10° NE
ADEOS II 4.3 02:35:19 10° NE 02:38:25 22° ENE 02:38:25 22° ENE
USA 234 3.8 02:58:03 10° ENE 03:03:57 50° ESE 03:03:57 50° ESE
CZ-4B R/B 4.0 03:09:55 10° NNE 03:14:47 50° ENE 03:14:47 50° ENE
ATLAS 5 CENTAUR R/B 3.8 03:16:52 22° ESE 03:17:05 22° ESE 03:20:57 10° ENE
ADEOS Rocket 4.2 03:14:01 10° N 03:18:11 35° NNW 03:18:11 35° NNW
Cosmos 1943 Rocket 4.0 03:22:20 17° SE 03:25:17 26° ESE 03:29:49 10° NE
Cosmos 1867 4.0 03:31:44 59° E 03:31:44 59° E 03:36:33 10° NE
Lacrosse 5 3.8 03:32:45 21° SE 03:33:52 23° ESE 03:37:47 10° ENE
PAYLOAD B 4.4 03:32:11 10° NNE 03:36:54 66° NNE 03:36:54 66° NNE
Okean-O 4.0 03:41:21 10° NNE 03:45:28 37° E 03:47:30 24° SSE
CZ-4B DEB 4.1 03:49:24 10° N 03:54:46 75° NW 03:54:46 75° NW
Meteor 1-31 Rocket 3.9 03:51:52 10° NNE 03:55:36 41° E 03:56:01 40° ESE
Cosmos 1624 Rocket 4.1 04:02:19 47° S 04:03:53 78° ESE 04:09:15 10° NNE
Cosmos 2056 Rocket 3.6 04:03:20 44° S 04:04:56 73° ESE 04:10:07 10° NNE
Cosmos 921 Rocket 3.7 04:09:41 42° N 04:09:41 42° N 04:12:43 10° NNE
Cosmos 2369 Rocket 2.1 04:12:47 58° WSW 04:13:39 66° WNW 04:19:18 10° NNE
Cosmos 1933 3.6 04:16:25 59° N 04:16:25 59° N 04:19:47 10° N
ADEOS II 2.3 04:14:22 10° N 04:19:22 49° WNW 04:19:22 49° WNW
Cosmos 1862 Rocket 4.0 04:25:03 43° NW 04:25:03 43° NW 04:28:21 10° N
RUBIN 8/PSLV 4.4 04:21:14 10° N 04:25:39 78° WNW 04:27:17 38° SSW
Thor Agena Rocket 3.4 04:22:05 10° S 04:27:19 77° WSW 04:32:32 10° NNW
Cosmos 1833 4.1 04:23:16 10° NNW 04:28:54 89° WSW 04:34:29 10° SSE
Okean O Rocket 3.7 04:27:51 10° NNW 04:28:48 14° NNW 04:28:48 14° NNW
Lacrosse 5 rocket 3.5 04:29:58 12° N 04:31:19 14° NNE 04:33:18 10° NE
Cosmos 1703 Rocket 3.7 04:27:54 10° S 04:32:13 73° E 04:36:35 10° NNE
Cosmos 1371 Rocket 4.1 04:32:01 43° W 04:33:04 50° WNW 04:38:06 10° NNE
ATLAS CENTAUR R/B 3.8 04:35:03 32° W 04:37:36 44° SW 04:52:08 10° SSE
Nadezhda 2 Rocket 4.5 04:38:31 10° NNW 04:44:27 55° W 04:50:23 10° SSW
Meteor 1-14 Rocket 4.3 04:39:30 10° N 04:45:25 90° E 04:51:08 10° S
Cosmos 972 4.3 04:41:08 10° SSW 04:46:00 83° WNW 04:51:12 10° NNE
Cosmos 1452 Rocket 3.8 04:41:15 10° S 04:46:29 72° ESE 04:51:47 10° NNE
USA 234 3.4 04:41:05 10° NE 04:47:26 57° NNW 04:51:19 25° W
Cosmos 2221 Rocket 3.6 04:46:21 10° S 04:50:55 90° NNW 04:55:30 10° N
Cosmos 2263 4.5 04:51:26 25° WSW 04:54:23 45° WNW 04:59:46 10° NNE
CZ-4B R/B 4.2 04:51:08 10° N 04:55:37 25° WNW 04:56:42 24° W
Cosmos 1782 4.2 04:52:29 10° SSE 04:56:13 41° E 04:59:58 10° NNE
COSMO-SKYMED 1 2.4 04:52:05 10° S 04:56:24 74° WSW 05:00:46 10° NNW
ERS-2 4.2 04:58:29 10° NNW 04:59:29 14° NW 04:59:29 14° NW
ATLAS 5 CENTAUR R/B 2.0 04:58:27 23° WSW 05:01:17 53° NW 05:06:27 10° NNE
Cosmos 1023 Rocket 4.5 04:57:33 10° NNW 05:02:49 89° WSW 05:08:04 10° SSE
Cosmos 407 Rocket 4.0 05:00:27 10° NW 05:05:21 37° WSW 05:10:12 10° SSW
Cosmos 676 Rocket 4.2 05:01:32 10° NNW 05:06:39 51° WSW 05:11:47 10° S
Abrixas 2.6 05:06:59 34° WNW 05:07:57 55° NNW 05:10:49 10° ENE
Cosmos 1943 Rocket 2.4 05:03:56 13° SW 05:08:43 48° WNW 05:14:06 10° NNE
Meteor 1-28 Rocket 3.0 05:06:32 10° S 05:10:14 69° W 05:13:58 10° NNW
Cosmos 1745 Rocket 3.9 05:04:18 10° N 05:10:31 85° W 05:16:39 10° S
Cosmos 1417 Rocket 4.5 05:06:30 10° SSW 05:12:36 61° W 05:18:42 10° N
Meteor 1-26 Rocket 4.4 05:08:57 10° SSW 05:14:29 51° WNW 05:19:58 10° N
CZ-4 R/B 3.6 05:12:27 10° NNE 05:16:12 31° E 05:19:55 10° SSE
Meteor 2-10 Rocket 3.6 05:11:32 10° SSW 05:16:20 47° WNW 05:21:13 10° N
Lacrosse 5 1.8 05:12:00 14° WSW 05:16:25 71° NW 05:21:30 10° NE
ATLAS 3B R/B 4.3 05:11:03 10° S 05:18:00 41° ESE 05:24:44 10° NE
CZ-4C R/B 2.3 05:14:17 10° SSW 05:19:34 81° SE 05:25:36 10° NE
Tiangong 1 2.6 05:19:06 10° SW 05:21:38 27° SSE 05:24:13 10° E
Okean-O 3.7 05:18:14 10° NNW 05:21:46 24° WNW 05:25:06 11° WSW
Cosmos 1386 Rocket 4.4 05:15:47 10° N 05:21:51 90° W 05:27:58 10° S
CSL-04 Rocket 4.0 05:16:43 10° NNE 05:22:05 72° ESE 05:27:30 10° S
Meteor 1-25 Rocket 4.3 05:17:21 10° NNW 05:23:07 64° W 05:28:51 10° S
Cosmos 1633 3.8 05:24:20 10° N 05:27:51 44° ENE 05:31:20 10° SSE
Meteor 1-31 Rocket 4.4 05:27:13 10° NNW 05:29:45 17° WNW 05:31:28 13° W
Cosmos 1606 2.8 05:26:28 10° S 05:30:18 81° E 05:34:14 10° N
Cosmos 1140 Rocket 3.7 05:27:05 10° NNW 05:32:07 50° WSW 05:37:09 10° S
Okean 1-7 3.5 05:30:01 10° SW 05:33:59 36° WNW 05:37:56 10° N
Cosmos 1782 Rocket 4.5 05:30:11 10° NNW 05:33:59 28° W 05:37:47 10° SSW
Meteor 1-11 Rocket 4.4 05:29:58 10° N 05:35:56 64° ENE 05:41:47 10° SSE
Cosmos 2297 Rocket 3.7 05:32:55 10° NNW 05:38:09 38° NE 05:43:22 10° ESE
SJ-12 4.5 05:35:13 10° NNE 05:39:18 64° E 05:43:22 10° S
IDEFIX/ARIANE 42P 3.1 05:34:48 10° NNE 05:40:02 66° ESE 05:45:12 10° S
Meteor 1-10 Rocket 4.2 05:35:01 10° SSW 05:40:33 80° W 05:46:14 10° N
Cosmos 614 Rocket 4.2 05:40:54 10° NNW 05:45:48 49° WSW 05:50:42 10° S
Cosmos 2219 3.4 05:42:20 10° NW 05:47:48 50° WSW 05:53:13 10° S
Cosmos 1300 Rocket 3.9 05:43:42 10° N 05:48:09 73° E 05:52:33 10° SSE
CSL-04 Debris 4.2 05:42:44 10° NNE 05:48:10 80° WNW 05:53:33 10° SSW
Cosmos 1850 Rocket 4.2 05:43:11 10° NNW 05:48:27 57° WSW 05:53:36 10° S
Helios 1B rocket 3.8 05:46:51 10° SE 05:50:45 44° ENE 05:54:42 10° N
Okean 2 Rocket 4.1 05:47:13 10° NW 05:50:48 25° W 05:54:22 10° SW
PAYLOAD A 3.8 05:46:18 10° N 05:51:00 70° WNW 05:55:45 10° SSW
BREEZE M DEB (TANK) 3.8 05:39:10 10° W 05:51:07 55° NNW 05:54:52 10° ENE
Cosmos 2227 Rocket 2.7 05:52:06 10° NNW 05:57:47 66° ENE 06:03:24 10° SE
